Theta_e
332 338 342 345 349 353 354 350 357 363 363 358 357 363 365 366 364 367 366 363 364 360 354 353 352 351 353 353 352 355 354 356 357 349 350 355 353 353 352 352 354 352 353 354 353 352 351 352 352 351 350 350 349 348 347 348 347 346 342 339 343 345 347 349 350 350 350 351 351 351 352 353 353 354 353 353 354 354 354 353 353 353 353 352 350 350 351 352 352 353 352 352 351 351 351 351 350
337 344 348 349 351 354 357 355 360 362 359 356 361 366 364 366 366 365 365 364 360 352 351 351 348 348 349 351 350 356 358 355 356 355 353 353 352 352 352 351 354 353 353 353 353 353 351 352 352 352 350 349 348 348 347 346 345 343 341 340 344 347 349 351 351 351 351 350 350 350 352 352 352 352 353 353 353 353 352 352 352 353 353 353 351 350 351 353 353 353 351 351 351 351 351 350 350
346 347 350 350 351 351 358 361 359 357 357 354 360 368 367 366 366 366 365 361 354 349 351 349 349 348 347 353 352 356 358 353 351 352 352 353 354 353 351 351 352 353 354 353 353 354 353 352 352 353 351 349 347 347 345 344 343 342 342 344 347 349 351 350 351 352 351 350 350 351 352 352 352 352 352 353 353 352 351 351 352 352 353 353 352 351 351 352 353 352 350 351 351 351 351 350 350
351 350 350 348 353 357 362 365 364 358 356 354 356 368 369 365 365 366 364 355 350 349 352 351 351 348 350 355 353 354 355 353 352 352 351 353 353 353 352 351 352 353 353 353 353 354 352 352 352 352 350 348 346 345 344 343 342 342 345 348 349 350 351 351 351 352 351 350 350 350 351 353 352 353 352 351 351 350 350 350 352 353 352 352 352 352 350 350 351 352 350 350 351 351 350 350 349
353 353 351 346 360 365 365 366 367 360 357 358 359 369 370 365 365 365 360 352 350 352 353 350 350 348 350 351 351 353 354 351 352 352 352 353 353 353 353 352 351 352 354 354 354 351 350 350 350 349 348 347 345 343 342 341 341 345 349 350 350 350 351 351 350 351 351 350 351 350 350 351 351 352 351 350 350 349 350 352 352 352 352 352 352 351 350 349 350 351 350 350 352 351 351 350 349
353 355 351 346 359 363 363 361 361 360 362 364 366 370 369 365 366 363 354 351 352 353 352 350 349 348 348 348 349 350 351 351 352 352 353 353 352 352 352 352 351 352 353 354 352 348 347 347 347 347 347 346 345 342 342 342 345 348 350 351 350 351 351 350 349 350 350 350 351 351 350 350 350 350 350 350 351 351 353 353 353 352 352 352 351 351 350 350 350 349 348 349 351 351 350 349 348
354 355 353 351 357 361 363 360 358 363 366 367 368 367 366 366 365 359 354 352 353 352 350 350 348 348 350 348 348 348 350 352 352 352 353 353 353 352 353 353 352 352 352 353 351 346 345 346 347 348 348 347 345 344 343 345 349 350 350 351 351 350 350 349 348 349 350 352 351 352 351 351 352 351 351 351 352 353 353 353 352 352 352 351 350 350 350 349 350 348 348 349 351 351 348 346 344
352 354 355 358 363 365 363 361 362 367 367 366 368 365 365 367 363 356 354 355 353 352 351 348 346 351 351 348 349 349 350 351 352 353 353 354 354 352 352 353 353 352 352 354 351 346 345 346 349 351 350 348 347 346 347 349 351 350 350 351 351 349 349 350 349 350 350 351 352 352 351 351 352 352 351 351 352 353 353 352 352 352 352 351 350 349 348 348 349 349 348 349 350 351 348 345 343
351 354 360 363 366 364 361 361 364 367 368 365 366 366 366 365 362 359 356 355 353 351 352 348 346 351 350 349 350 349 351 352 353 353 352 353 354 353 353 353 353 352 352 352 350 346 347 348 349 351 350 349 348 349 350 351 351 351 350 350 349 349 349 351 351 350 350 351 352 351 351 352 352 352 352 352 352 352 352 352 352 353 352 352 351 349 349 347 348 349 348 349 350 350 348 345 342
351 355 362 365 363 357 355 361 367 368 368 366 367 368 369 365 363 366 362 356 354 353 352 347 348 352 351 351 351 349 350 352 352 352 353 353 353 354 353 353 352 352 352 352 351 348 348 349 350 352 350 350 349 349 350 351 351 350 350 349 349 348 350 351 350 350 350 351 350 351 352 352 352 352 352 352 352 353 352 352 352 352 350 350 351 350 348 348 347 347 348 348 348 348 346 343 343
354 359 362 362 357 351 351 358 367 369 367 365 366 367 366 365 363 366 363 356 355 353 351 347 349 351 352 352 350 348 350 351 351 352 353 354 353 353 353 353 352 352 352 352 352 351 349 350 351 351 350 349 348 349 351 351 351 350 349 349 349 349 350 350 351 349 350 351 351 351 353 352 352 351 351 352 352 353 353 352 352 351 350 350 351 351 349 347 346 346 348 347 347 347 344 342 345
357 363 364 361 357 356 357 359 366 369 368 367 368 366 364 363 363 363 360 356 355 353 350 347 349 350 352 353 349 348 349 348 350 351 353 354 352 352 352 352 352 352 353 353 353 352 350 350 351 351 349 349 348 349 350 350 351 351 349 349 349 349 350 351 351 350 350 350 351 351 351 352 351 350 350 351 352 352 352 352 351 350 351 351 352 351 351 349 346 347 348 347 348 347 345 345 348
358 364 366 361 363 365 361 362 367 368 370 372 370 367 364 364 363 362 360 357 356 356 353 348 347 349 352 352 348 346 346 346 347 349 351 352 352 352 353 352 351 352 352 352 353 354 353 352 352 351 351 350 351 351 349 349 350 351 349 349 349 349 350 351 350 350 350 350 350 350 350 351 350 349 347 349 352 353 351 351 351 350 350 351 352 352 352 352 349 348 348 347 348 348 347 347 349
358 363 366 363 367 367 362 364 367 366 370 372 368 365 365 364 362 361 360 358 361 359 350 347 346 350 353 350 349 346 345 347 346 349 350 351 351 352 353 352 352 351 351 352 353 355 355 354 354 353 353 353 353 352 350 349 350 350 350 348 349 349 349 351 351 350 350 350 349 349 350 349 349 349 348 349 350 351 350 350 351 351 350 350 352 352 352 352 350 348 346 346 347 347 347 347 346
357 361 366 367 364 363 363 365 366 365 367 368 366 365 365 363 362 362 360 359 361 357 349 347 346 350 351 350 351 346 346 347 346 349 349 350 350 351 351 351 350 349 350 352 354 354 355 354 354 354 353 354 353 352 352 351 350 349 350 349 349 349 349 350 351 350 351 350 350 350 350 349 350 350 350 349 350 348 348 349 351 351 350 351 351 351 352 352 351 350 348 346 346 348 348 346 345
354 357 367 367 360 359 364 367 366 364 365 367 365 363 365 364 361 362 360 358 357 353 350 349 345 348 349 348 349 346 347 348 347 348 348 350 349 350 350 350 349 349 351 352 354 354 355 355 355 354 353 354 354 353 353 352 350 349 350 350 349 349 348 348 350 351 351 350 351 350 350 350 351 350 350 351 351 348 347 349 350 351 350 351 350 350 351 351 351 351 350 350 349 349 348 344 344
352 359 365 362 358 360 365 369 367 363 364 366 364 364 367 365 362 360 359 359 355 352 351 349 345 345 346 348 348 347 348 347 348 348 348 349 349 349 349 350 351 352 353 354 355 355 355 356 356 355 355 355 355 354 353 353 352 348 348 349 348 348 348 348 349 351 351 350 350 350 350 352 352 351 350 351 352 349 348 350 351 350 349 349 350 349 350 350 350 351 350 350 349 347 345 344 345
356 363 363 358 361 364 365 367 366 364 366 366 365 364 366 366 363 362 361 362 356 353 352 347 345 344 346 349 348 347 347 348 348 348 349 349 349 349 349 351 353 354 355 354 355 356 356 356 357 354 353 354 355 354 354 354 353 349 347 348 348 347 348 348 349 350 351 350 351 351 351 351 352 351 350 350 352 349 349 352 351 349 348 347 347 348 349 349 349 348 347 346 345 345 344 345 347
357 365 362 360 365 365 364 365 362 363 365 365 365 364 364 365 362 362 363 361 355 355 353 346 345 346 347 349 348 348 347 348 348 348 348 348 349 348 349 352 354 355 355 354 355 355 357 357 357 354 352 354 354 354 354 354 354 352 349 347 347 347 348 348 348 348 348 349 351 351 350 350 349 350 352 352 351 350 349 351 351 350 347 344 342 343 344 345 346 345 346 345 344 344 346 346 347
357 363 364 363 364 363 364 365 363 364 364 365 365 364 364 363 361 361 361 358 356 357 353 349 349 348 347 347 348 348 348 349 348 349 349 348 349 349 349 352 352 355 355 355 356 356 357 357 356 353 352 354 354 354 353 353 354 353 351 348 348 348 347 348 348 348 348 349 349 349 349 349 349 349 351 352 350 348 348 349 351 350 349 345 341 341 343 345 347 347 348 348 348 348 348 348 347
358 360 364 363 361 364 365 364 364 362 363 366 365 365 365 362 361 362 362 362 358 356 352 349 349 349 347 346 347 349 348 348 349 348 348 348 348 348 349 351 351 353 355 356 357 357 357 355 353 352 352 353 353 353 353 353 354 354 353 351 348 347 348 349 349 349 349 349 349 349 349 350 350 351 350 351 351 349 347 348 349 348 349 349 347 347 347 349 350 350 349 350 350 350 348 347 348
358 358 359 357 358 364 366 363 363 363 363 365 365 364 363 362 363 362 364 367 360 353 350 349 347 347 347 346 347 347 347 348 348 347 348 348 348 347 349 350 351 351 354 356 357 356 354 353 352 352 352 352 353 353 353 353 354 355 354 353 350 349 348 350 351 351 351 350 349 350 350 350 350 350 350 350 351 350 349 351 351 350 349 350 351 352 352 351 351 351 352 351 350 348 347 346 346
359 359 354 352 357 364 363 361 363 363 365 365 364 363 362 363 363 361 365 367 360 350 349 348 347 347 347 347 346 346 346 346 346 348 347 346 347 348 348 349 350 350 352 354 355 353 352 352 352 352 351 352 353 352 353 352 353 354 355 354 353 352 350 349 350 351 351 351 349 348 348 348 348 349 350 351 351 351 350 351 352 352 351 350 351 352 352 352 351 350 351 351 350 349 348 347 345
357 358 355 351 355 360 361 360 362 363 365 365 363 363 363 364 364 361 365 365 358 350 348 346 347 348 346 345 345 345 345 345 345 347 347 346 347 347 348 348 349 350 352 354 354 354 353 352 352 353 352 352 351 352 351 351 352 352 353 355 355 355 353 351 351 350 349 350 348 348 349 349 347 347 350 351 352 352 351 350 351 353 352 351 350 351 352 353 352 351 350 351 350 350 350 348 347
356 356 354 349 354 358 359 360 361 363 363 363 364 364 364 363 363 363 366 363 355 348 347 346 346 346 344 344 344 345 345 344 346 346 346 345 346 347 347 347 348 350 353 353 353 355 354 353 353 353 353 353 351 351 351 350 352 352 352 354 355 355 354 352 353 350 348 349 349 349 350 349 347 348 349 350 352 354 352 351 352 353 353 352 352 351 352 353 354 354 353 351 351 350 351 350 348
356 354 353 349 356 359 360 362 362 363 363 363 365 366 365 362 361 363 365 363 355 346 346 346 345 344 343 343 343 343 343 343 345 345 345 344 345 345 346 347 348 350 352 352 353 354 355 354 354 354 354 354 352 352 352 350 352 353 353 353 352 353 351 351 351 351 349 348 349 350 350 349 348 348 349 350 352 353 352 351 352 352 351 352 352 351 350 352 353 355 354 351 350 350 351 350 349
355 353 352 348 355 358 358 363 363 363 365 364 365 367 367 363 363 365 362 361 355 347 347 345 345 344 343 343 342 342 343 342 343 342 343 343 344 345 345 346 347 350 351 351 353 354 355 355 356 356 355 354 353 353 352 352 353 353 353 353 351 351 349 348 349 349 348 347 349 349 349 349 349 349 350 352 352 351 351 351 351 350 350 351 353 352 351 350 353 355 355 352 350 350 350 349 348
351 350 352 345 350 358 359 363 362 364 365 363 365 367 367 364 365 366 362 358 355 348 348 346 344 344 342 343 341 342 342 341 342 341 342 343 342 344 344 345 347 350 350 350 354 353 353 354 354 355 355 355 354 353 354 354 354 354 353 353 352 349 349 349 349 349 347 346 349 349 349 350 350 351 352 353 352 352 352 352 352 351 350 351 353 354 352 351 354 355 355 353 351 350 350 348 346
348 346 350 344 345 359 361 364 365 365 365 362 364 366 367 368 366 364 361 356 353 349 348 346 344 344 342 343 340 341 342 342 343 341 341 343 343 345 344 344 346 348 349 350 354 354 352 354 354 354 354 356 356 354 355 355 355 355 353 353 353 351 350 350 350 350 349 349 349 349 350 352 351 352 353 352 352 352 352 352 352 352 352 353 354 353 352 351 353 355 355 353 351 351 350 348 346
349 344 347 343 343 361 364 363 366 366 365 362 360 360 363 369 366 362 361 358 352 349 347 346 345 344 342 341 341 341 342 341 342 341 342 342 343 344 343 342 344 345 348 350 352 353 352 353 353 354 354 356 356 354 354 354 355 355 354 353 354 352 352 353 352 350 350 352 351 351 351 353 353 353 353 352 352 354 354 353 353 353 354 354 353 352 351 350 350 353 354 353 352 350 350 348 346
350 344 346 340 338 353 364 358 363 366 362 361 360 357 362 368 366 363 362 358 355 349 347 347 344 345 343 341 342 342 342 342 342 342 342 343 342 343 342 343 343 345 348 350 351 352 352 353 352 352 354 355 355 354 353 353 354 355 353 353 354 354 354 353 353 350 350 353 353 352 353 353 354 353 353 352 352 354 354 354 354 355 354 353 354 354 353 352 350 350 351 351 352 351 350 349 349
349 339 335 338 335 350 368 358 360 366 361 361 359 357 363 368 364 363 362 361 360 354 346 346 344 344 345 342 343 343 341 342 342 343 342 342 342 342 342 343 343 344 347 348 349 351 352 352 351 352 353 354 355 353 353 352 353 354 353 353 353 353 353 354 355 353 351 353 353 352 352 352 353 354 354 352 352 353 353 354 356 356 356 355 355 355 354 354 353 352 349 349 351 351 351 351 351
344 339 327 331 333 346 363 360 357 364 362 362 359 358 365 368 363 362 364 363 363 359 348 347 346 344 345 343 343 342 342 342 342 342 341 341 341 341 342 344 343 345 345 347 349 350 352 351 350 351 353 354 355 354 353 353 353 353 352 353 353 353 354 355 357 356 353 353 354 351 349 348 351 355 356 353 351 352 352 354 356 357 356 355 356 355 353 351 354 353 351 350 351 352 352 352 352
332 336 330 332 332 340 353 359 360 360 362 365 360 360 363 364 362 361 364 363 363 360 351 346 346 346 346 344 344 343 342 342 342 342 341 340 342 341 342 344 344 345 344 347 348 350 350 350 349 351 352 354 355 355 354 354 355 353 353 353 353 353 354 355 357 357 355 354 356 355 351 348 349 354 357 354 351 352 353 355 356 357 357 356 356 354 350 350 353 355 354 353 352 351 352 351 352
324 327 328 329 333 340 348 357 362 359 361 363 359 361 364 363 362 362 363 363 361 361 357 352 346 346 346 343 344 344 343 343 342 342 342 341 341 341 342 343 345 345 345 346 348 349 348 348 349 350 353 355 356 356 355 356 356 354 354 353 353 353 352 353 355 357 356 355 357 356 353 351 349 352 356 356 354 353 355 355 357 357 356 357 356 353 350 350 352 354 356 355 353 351 352 351 352
329 331 331 327 330 343 354 358 359 359 362 363 360 361 364 363 363 364 362 362 361 361 360 359 352 346 346 344 344 345 344 342 343 342 341 341 342 341 341 343 345 344 345 346 347 348 347 347 350 349 351 355 356 356 355 356 355 354 354 354 355 355 353 354 356 356 356 356 357 356 356 354 350 350 354 357 357 355 356 356 356 356 356 357 356 354 354 353 354 355 356 356 355 354 353 352 352
336 334 333 331 330 338 354 360 358 359 357 358 360 360 364 365 365 365 361 360 362 360 359 359 358 350 346 345 343 345 344 343 344 343 341 341 342 342 342 344 345 344 346 347 347 348 347 348 350 349 351 354 355 356 354 354 354 354 353 354 355 355 355 357 356 356 357 358 357 357 358 357 354 353 353 356 358 357 357 356 357 357 357 357 356 354 354 356 358 357 355 357 356 356 354 351 353
338 334 330 331 329 334 350 359 355 355 355 354 359 361 363 366 366 366 363 362 362 359 358 358 358 355 348 346 346 345 344 342 343 343 342 342 341 342 342 344 345 345 346 347 347 349 347 349 351 350 351 353 355 355 352 352 353 353 353 352 355 355 355 357 355 354 356 357 355 355 357 357 358 356 354 356 357 357 358 357 358 358 357 358 357 357 356 358 359 357 356 357 356 356 355 353 353
336 334 328 326 330 335 342 353 353 350 350 352 357 359 361 367 366 364 363 363 362 359 360 360 359 357 353 348 346 346 344 344 344 342 343 342 342 344 343 343 346 345 348 348 348 350 349 351 351 351 352 353 354 352 350 352 352 352 352 351 354 354 355 356 353 353 356 357 355 356 356 356 357 358 357 357 356 358 359 358 359 357 356 357 357 358 358 358 358 357 357 357 356 355 354 352 353
334 334 326 323 332 332 331 344 353 351 348 350 355 356 360 366 361 357 356 358 361 360 360 362 363 362 359 353 347 346 345 344 345 343 343 343 343 344 344 343 346 347 348 349 350 351 351 352 352 352 353 353 353 351 350 353 351 351 352 351 351 352 353 354 352 352 356 357 357 358 357 354 355 357 359 358 356 357 359 358 359 358 356 357 358 358 358 358 359 357 356 356 356 355 352 352 353
333 335 328 326 333 333 335 346 352 349 348 350 351 344 347 353 350 350 349 352 360 361 360 361 362 361 357 358 352 346 346 345 345 345 342 343 343 344 345 344 346 348 349 350 350 351 351 352 353 353 353 354 352 352 352 352 352 352 352 352 352 352 353 354 354 353 355 358 358 359 359 356 357 358 359 359 357 357 359 359 358 359 359 358 358 357 356 357 359 358 357 356 354 353 351 350 352
328 335 335 334 336 334 339 349 344 335 337 349 346 336 340 345 342 347 348 354 363 364 363 361 359 358 357 361 359 349 347 346 344 344 343 344 345 345 345 345 346 347 348 351 350 350 351 353 354 353 354 354 353 353 352 352 352 353 353 353 355 355 354 356 357 354 356 357 357 359 360 359 359 359 358 359 358 356 359 359 359 358 358 358 359 357 355 357 358 358 357 355 354 353 351 349 351
321 331 337 337 341 337 335 339 333 323 329 348 345 336 340 347 346 352 353 359 365 364 363 362 360 358 358 362 362 352 346 347 344 345 344 344 346 347 346 346 346 347 348 350 350 349 352 354 354 354 354 354 355 355 354 353 355 355 355 356 357 357 356 356 356 354 355 355 356 357 359 359 359 360 358 359 359 356 355 358 360 358 355 356 359 358 357 358 357 356 356 356 355 354 353 351 351
322 331 337 337 337 337 335 333 326 324 330 341 342 336 340 344 351 360 360 360 362 363 363 364 365 365 361 359 361 356 345 346 345 344 345 346 347 347 347 346 346 347 347 349 349 350 352 355 355 355 354 354 355 355 355 356 356 357 357 356 355 355 355 356 355 355 353 353 355 356 357 358 358 359 359 359 360 358 356 356 357 358 357 355 359 358 356 357 356 356 357 358 356 356 356 353 353
329 332 336 336 336 338 338 331 325 328 326 324 330 331 336 341 351 359 362 357 359 362 362 362 365 367 365 360 359 358 352 349 348 345 345 345 347 348 348 347 346 347 346 347 348 350 354 356 356 356 355 354 356 356 356 358 358 358 356 353 353 353 354 355 356 356 355 354 355 356 357 357 357 357 359 359 358 358 359 357 356 359 360 357 358 358 355 356 358 358 359 358 357 358 356 354 355
332 332 334 334 337 337 338 334 324 324 324 319 322 327 333 340 345 350 357 354 355 362 361 361 362 360 363 361 358 358 357 355 353 348 345 346 348 348 347 347 346 346 346 346 347 350 355 357 357 357 356 355 357 356 357 360 359 357 355 352 352 351 352 354 355 356 357 358 359 357 357 358 358 357 359 360 358 358 359 359 359 360 360 358 357 357 357 358 360 359 358 357 356 357 356 356 357
331 332 333 332 335 336 334 334 326 322 321 319 322 327 331 338 343 345 351 353 354 360 360 360 362 359 361 359 357 359 358 356 356 354 350 347 348 348 348 347 346 346 347 347 347 350 354 358 358 358 357 356 358 358 359 359 358 357 356 354 353 352 352 353 354 356 358 360 361 359 356 358 358 358 359 360 359 358 358 358 358 359 359 357 357 358 357 359 359 358 359 357 357 358 356 357 357
331 332 331 325 325 327 324 324 324 322 320 320 324 328 327 332 343 348 351 354 354 356 358 359 360 360 362 361 359 361 359 358 357 357 357 351 347 348 348 349 347 347 347 347 348 350 354 358 359 358 358 356 358 360 360 359 358 357 357 355 355 353 353 353 355 356 358 360 361 360 359 359 359 358 358 360 359 358 358 358 357 357 357 356 357 358 357 357 357 357 359 358 358 358 357 358 357
333 331 323 318 317 319 318 318 319 319 319 321 324 329 332 335 344 350 352 354 353 354 355 356 358 360 362 362 361 361 359 359 357 357 361 358 351 348 349 348 347 348 348 348 348 350 354 359 360 360 359 358 359 361 361 359 358 358 357 356 357 356 354 354 356 357 358 359 359 361 361 360 360 359 357 358 358 359 359 360 359 358 358 356 357 358 358 356 356 357 359 359 359 359 359 359 357
330 325 317 315 317 317 318 318 318 318 317 320 326 333 336 339 345 350 351 348 350 352 353 356 357 360 362 360 360 360 358 360 357 355 360 360 355 349 349 350 349 348 348 349 348 350 353 358 361 361 361 360 360 362 362 360 357 357 358 358 358 358 356 356 357 357 358 359 358 360 362 361 361 360 359 357 357 359 359 360 360 360 360 359 360 361 361 359 359 361 360 358 359 359 359 360 357
328 329 324 318 315 317 317 315 316 317 316 317 325 335 335 338 345 349 349 347 347 349 352 357 356 358 361 359 359 361 360 361 358 355 358 357 355 353 351 349 349 348 348 348 348 350 353 358 361 362 362 361 361 362 363 360 358 356 357 358 358 359 358 357 357 356 357 358 358 359 360 361 361 359 360 360 357 358 358 358 360 361 362 362 361 361 362 361 360 363 362 359 360 359 358 359 357
326 331 326 317 318 318 314 313 314 314 315 317 323 333 339 343 347 347 345 347 346 347 351 354 353 357 360 359 360 362 360 360 359 358 359 357 358 357 354 352 349 348 348 348 349 351 354 357 361 363 363 361 361 363 363 361 359 356 357 358 358 358 359 358 358 356 355 356 356 357 358 359 359 358 359 360 359 359 359 359 360 362 363 362 361 360 362 360 357 360 362 361 360 360 359 359 358
323 323 319 321 327 323 313 311 314 311 314 322 327 333 338 341 347 348 345 347 346 346 349 351 352 354 356 359 361 362 361 359 359 359 358 357 357 357 355 354 352 351 349 348 348 350 353 358 361 363 364 363 363 363 363 361 360 358 357 357 357 358 358 358 358 355 353 353 353 354 357 358 359 359 359 359 358 359 360 360 360 360 362 363 362 361 362 361 358 359 361 361 361 361 359 358 359
321 316 319 324 325 325 317 313 316 311 313 324 331 332 333 336 344 348 346 346 346 346 347 349 350 351 352 353 355 357 358 358 358 358 358 358 359 358 358 357 356 354 352 352 351 351 352 358 361 363 364 364 363 364 364 362 361 359 358 357 357 357 358 357 357 355 353 353 354 352 355 358 358 359 359 358 358 359 359 361 359 359 360 362 363 361 362 363 361 360 362 361 360 360 359 360 360
323 319 322 324 315 316 316 314 316 313 313 326 332 330 332 334 339 345 346 346 345 345 347 348 349 349 350 350 351 352 354 355 357 357 357 359 359 360 360 360 358 356 354 355 354 352 352 354 360 363 365 365 364 364 364 363 361 360 359 359 358 357 357 356 355 355 353 352 354 353 353 355 356 358 358 356 357 358 359 360 360 360 360 361 362 361 362 362 362 362 362 362 362 359 358 361 362
325 323 325 326 318 315 315 314 317 313 314 327 333 332 337 341 344 347 349 348 345 344 346 347 348 348 348 348 348 349 351 352 355 356 355 357 359 359 359 359 358 355 355 355 354 354 355 354 359 363 364 364 364 363 363 363 362 359 359 360 360 357 356 355 354 354 353 351 352 353 352 352 354 356 357 357 357 358 359 359 359 359 359 360 361 362 363 363 363 363 362 360 360 361 361 362 363
321 318 318 319 318 320 317 316 317 314 314 324 334 337 339 344 350 350 347 347 344 343 344 344 346 346 346 346 346 347 350 351 352 353 353 356 358 358 359 359 357 355 354 353 353 354 354 354 357 361 362 362 363 362 360 362 362 359 358 359 360 359 357 356 354 353 353 352 351 352 352 351 352 354 355 356 356 357 358 359 358 357 356 357 359 360 361 362 363 363 362 360 359 360 361 362 362
322 318 318 319 318 318 315 314 315 314 314 321 334 340 340 344 351 348 341 342 342 341 342 341 343 344 344 344 344 344 347 348 350 350 349 353 357 358 359 359 357 356 356 355 355 354 354 354 354 359 361 361 360 359 357 359 361 360 358 359 359 359 357 355 355 353 352 352 351 352 351 350 351 351 353 355 357 356 356 357 357 355 354 354 355 357 358 359 360 361 362 362 359 358 361 362 362
Wind_Speed
11 11 10 10 12 10 7 4 2 1 1 1 1 2 1 3 2 7 6 2 4 6 7 8 7 5 6 10 12 14 12 7 6 5 6 11 23 25 23 27 25 24 24 21 19 19 18 18 16 15 15 15 15 15 16 15 14 14 12 12 11 10 10 10 10 11 10 10 10 10 10 10 10 10 10 11 11 11 12 12 12 12 13 14 14 14 14 14 14 12 11 12 12 13 14 15 16
13 12 11 12 12 9 2 0 2 1 1 0 1 1 1 3 4 7 8 5 5 10 10 8 9 10 11 12 14 17 16 15 16 12 11 23 27 24 27 27 25 25 24 22 20 19 18 19 17 16 16 16 17 17 16 15 15 13 11 11 9 9 9 10 10 10 10 9 10 10 10 10 10 10 10 11 11 11 11 11 12 12 12 13 13 13 14 14 13 12 12 12 12 13 14 15 16
13 12 12 12 8 6 1 1 2 1 0 1 0 1 3 3 3 4 6 8 10 13 12 10 9 9 11 13 15 16 13 15 22 17 14 25 22 22 29 26 26 24 23 22 21 19 17 19 18 17 17 18 18 17 17 15 14 12 10 9 8 8 8 9 9 10 9 9 9 10 10 10 10 10 10 10 10 10 11 11 11 12 12 13 12 12 13 14 13 13 13 12 12 13 14 15 16
14 14 11 8 3 3 2 1 2 0 0 1 2 2 4 4 4 6 7 10 13 13 10 10 9 9 13 16 15 14 14 14 19 18 14 21 21 26 29 26 27 23 22 22 20 20 18 19 19 18 19 20 19 17 16 14 13 11 9 7 7 8 9 8 9 9 9 9 9 9 9 10 10 10 10 10 10 11 12 12 11 12 12 12 12 11 12 13 13 14 13 12 12 13 14 16 17
15 17 12 7 1 0 1 1 1 1 2 2 2 2 4 7 8 9 9 11 12 12 10 9 9 11 13 14 10 9 13 14 18 20 19 23 26 29 28 27 27 24 23 21 20 20 20 22 21 21 21 20 18 16 15 13 11 9 8 7 8 8 9 8 8 9 8 8 9 9 9 9 10 11 11 11 12 13 12 12 12 12 13 13 12 12 12 12 12 14 14 12 12 13 14 15 17
14 15 10 7 2 3 1 1 1 1 1 2 4 3 6 7 9 11 12 12 12 12 12 11 12 13 12 12 10 10 13 14 17 20 24 28 29 29 29 27 26 26 25 21 21 23 24 25 24 23 21 18 17 15 14 12 10 9 8 7 8 9 8 8 8 9 8 9 9 10 9 10 11 12 12 12 13 13 12 12 12 13 13 13 12 12 12 11 11 13 15 13 13 14 15 17 19
12 9 6 5 3 3 2 1 1 2 2 3 5 6 7 7 8 11 13 12 12 12 12 12 13 13 12 11 12 14 19 18 18 22 27 29 29 29 27 26 26 26 25 22 23 26 27 26 25 22 19 17 15 14 13 12 10 8 7 7 8 8 8 7 8 9 9 10 10 10 10 11 12 12 13 13 12 12 12 12 13 14 14 13 12 12 12 11 11 13 15 13 14 14 16 20 21
12 5 1 3 2 1 3 2 1 1 1 2 4 7 7 6 7 11 13 10 11 12 11 13 14 13 13 13 12 15 22 24 25 30 32 29 28 27 26 27 26 25 24 23 25 27 26 25 23 20 18 16 14 14 12 11 9 7 7 7 8 8 8 8 9 9 10 11 11 10 11 12 12 12 13 13 12 12 12 13 14 14 14 14 13 12 11 12 11 12 14 14 15 15 17 21 21
10 3 1 2 2 3 2 1 1 1 2 3 5 6 4 5 5 8 10 9 11 12 12 13 14 14 15 16 14 14 22 28 31 34 32 29 27 26 25 25 25 25 24 24 26 27 24 23 22 20 18 15 14 13 12 11 9 7 7 8 8 8 9 10 10 10 11 11 11 11 12 13 13 13 13 12 12 12 13 13 14 14 14 14 14 12 10 11 11 12 14 14 15 17 18 20 20
5 1 0 2 3 4 2 1 2 1 3 5 7 6 3 4 7 6 3 10 13 12 13 14 15 16 17 16 13 14 23 30 31 30 29 28 27 25 25 25 25 25 24 24 25 25 24 22 21 19 17 15 14 12 11 11 8 7 7 8 8 8 10 11 10 10 12 11 11 12 12 12 12 13 13 13 13 13 13 13 14 14 14 14 15 14 11 11 12 13 14 14 16 19 20 20 20
3 0 1 3 3 4 3 1 3 3 4 5 5 5 3 4 8 5 7 9 13 14 16 14 16 18 17 14 11 18 29 30 29 28 27 26 26 25 25 25 25 25 25 24 23 24 24 22 20 19 17 15 13 11 10 10 8 7 7 7 8 9 10 11 10 11 12 12 12 13 13 12 12 13 13 13 13 13 13 14 13 14 14 14 15 17 15 12 12 14 14 15 17 20 20 20 20
4 0 1 4 2 3 3 1 4 5 5 5 4 3 2 4 4 7 9 10 12 15 15 12 14 16 16 13 10 21 30 28 29 29 27 25 25 25 24 25 24 25 25 25 24 25 24 21 19 18 16 15 13 11 9 9 9 8 8 7 8 10 10 11 10 11 12 12 12 12 13 13 12 12 13 13 13 13 13 13 13 13 13 13 15 18 19 16 12 12 14 17 18 19 20 19 18
3 1 0 3 2 3 3 2 4 5 4 2 2 2 1 5 3 2 5 9 10 12 13 12 15 16 14 13 11 17 23 26 29 29 27 24 24 24 23 25 25 25 25 25 25 24 23 21 19 18 17 15 14 11 8 8 10 10 9 7 8 9 10 11 10 10 12 12 12 12 13 12 12 12 13 14 13 12 13 13 13 13 13 13 14 17 20 20 14 12 14 16 18 19 19 18 16
1 1 1 2 1 3 2 3 4 5 2 2 2 2 2 4 3 2 4 9 6 6 13 14 15 16 14 13 11 12 18 27 29 28 28 24 23 23 23 24 25 25 24 24 24 23 22 20 20 19 17 16 15 12 8 7 8 10 9 8 8 8 10 11 10 10 11 11 12 12 13 13 13 13 13 14 13 12 13 13 13 12 13 13 14 15 18 20 18 15 14 15 17 18 18 18 17
3 2 1 2 3 3 2 2 6 6 3 3 3 4 5 3 4 4 5 9 3 7 10 14 13 13 14 15 12 13 21 28 28 28 29 26 24 24 24 24 24 24 23 23 22 22 21 21 20 19 17 16 16 14 11 8 7 9 9 8 8 8 9 10 10 10 11 12 12 12 13 13 13 13 13 14 12 13 13 13 13 12 12 13 13 14 16 18 19 19 16 15 16 17 17 17 17
4 2 0 1 3 4 4 1 6 7 5 6 4 6 7 3 2 3 4 5 6 8 9 11 12 12 15 16 16 22 27 28 27 28 29 27 26 24 23 23 24 23 22 21 20 20 21 21 20 18 18 16 16 16 14 11 8 8 9 9 9 8 9 10 10 10 11 12 12 14 13 13 13 12 13 13 12 13 14 14 13 13 12 12 13 14 15 16 18 19 18 17 17 16 17 18 19
4 3 1 2 3 4 4 2 3 5 7 7 4 5 7 5 2 2 3 4 6 12 10 10 12 14 17 18 24 30 29 28 27 27 27 26 25 23 22 21 23 22 20 20 18 19 19 19 19 18 18 16 17 17 16 14 11 8 8 9 10 10 9 9 10 11 12 11 11 14 13 12 12 11 12 12 12 12 13 13 12 13 13 12 13 14 14 14 15 16 17 18 18 19 19 20 20
4 2 1 2 1 2 3 2 4 5 8 8 6 6 7 7 5 4 5 6 8 11 9 12 15 16 20 24 29 30 28 28 27 26 25 24 22 21 21 19 20 21 20 18 17 17 18 18 18 18 19 18 17 16 15 16 14 10 8 9 11 12 12 10 11 11 11 11 10 12 12 12 12 12 12 12 12 12 12 12 12 13 13 13 13 14 14 14 15 16 18 19 19 21 20 19 18
3 1 0 1 1 2 1 4 8 7 8 10 8 6 6 7 7 5 7 10 12 11 10 14 18 20 23 27 29 28 28 27 26 25 24 22 20 20 20 18 20 21 19 17 17 17 18 18 17 18 20 18 17 15 14 15 16 14 10 9 10 13 14 12 12 11 11 11 9 11 11 11 13 13 11 12 12 13 13 12 13 13 13 15 17 17 16 16 18 19 20 20 21 20 19 18 16
2 1 2 0 4 3 3 5 8 9 10 12 9 5 5 6 4 1 5 12 12 10 12 15 19 23 23 23 25 27 27 25 25 23 22 22 20 20 19 19 20 21 19 18 18 17 17 18 17 19 19 18 17 16 14 14 16 17 14 11 9 10 13 13 12 11 10 11 10 11 12 11 13 14 13 13 13 14 14 14 13 14 14 15 18 19 18 18 18 18 17 17 18 15 13 13 13
1 3 3 2 7 3 5 8 9 11 9 10 9 7 5 2 2 5 1 7 10 9 12 17 21 24 24 22 23 24 24 23 23 22 21 21 20 19 18 18 18 18 20 20 18 18 18 19 20 20 19 18 16 16 15 14 16 18 17 14 10 8 9 11 11 10 10 11 11 11 12 11 12 14 15 14 13 14 14 14 12 13 14 13 14 15 14 14 12 13 13 12 12 11 9 9 9
3 4 2 3 9 5 7 11 10 10 8 9 9 7 5 2 3 7 4 1 6 10 13 19 21 22 24 23 22 22 21 21 21 21 21 21 20 19 18 18 18 18 20 21 20 20 20 20 21 19 18 17 15 15 14 14 15 16 17 16 13 9 7 8 9 9 10 11 11 10 10 11 12 14 14 15 13 13 12 11 11 11 11 12 12 11 8 8 7 7 8 8 9 10 10 9 9
5 3 2 3 11 10 9 12 12 9 8 9 8 5 4 3 4 4 2 2 4 10 15 19 20 22 24 23 21 20 20 19 19 20 20 21 20 20 20 18 18 18 18 20 22 22 20 20 20 19 17 16 15 15 14 15 15 13 16 18 16 14 10 8 8 8 9 10 11 11 11 12 15 14 13 14 13 13 12 11 11 11 10 12 12 10 9 8 7 7 9 9 10 11 10 9 10
6 1 2 5 11 15 12 13 13 11 9 9 6 5 5 6 4 1 2 6 8 12 15 18 20 22 24 21 20 20 20 19 19 21 20 20 19 20 20 19 18 18 17 18 22 23 21 18 19 19 17 16 16 15 14 16 15 14 16 16 17 18 14 10 9 8 9 10 10 11 12 12 15 15 13 14 13 12 11 11 11 11 10 11 12 9 9 9 7 9 10 10 11 11 10 10 11
6 1 5 6 12 16 14 14 13 13 9 7 7 6 6 4 3 1 4 5 8 16 16 19 20 20 21 20 21 20 19 20 20 21 20 19 19 20 19 19 19 18 18 18 19 22 23 20 17 17 17 17 17 15 15 15 15 15 16 16 16 18 17 15 14 11 11 13 13 12 11 12 15 15 14 15 13 11 11 11 10 10 10 11 10 8 8 9 9 9 9 9 10 10 10 10 11
3 3 7 7 13 18 16 17 14 13 9 7 8 6 5 3 3 1 7 11 5 16 17 18 20 20 19 19 20 19 18 19 20 20 20 19 20 20 19 19 19 18 18 18 18 20 23 23 20 18 16 15 16 15 15 17 16 16 16 16 15 17 18 16 14 12 12 14 16 15 12 12 14 15 15 13 11 12 12 11 10 10 11 11 10 8 9 11 10 9 8 9 9 9 9 9 10
6 8 9 9 13 19 14 18 15 12 10 9 9 7 5 4 3 1 5 11 5 15 17 18 19 18 18 18 18 17 17 19 20 20 19 19 20 19 19 19 19 19 18 18 18 19 20 20 21 22 19 15 14 13 14 16 15 15 17 16 15 19 21 18 15 13 12 13 15 16 15 13 13 15 14 11 11 12 12 11 10 11 11 11 10 9 9 11 10 8 8 8 8 8 8 8 9
10 10 9 11 11 18 14 17 15 11 9 9 10 9 6 4 1 2 5 8 7 14 17 19 18 17 17 18 17 13 15 19 20 19 18 18 18 17 18 18 19 19 18 18 18 19 20 19 19 20 19 17 16 14 15 15 14 15 16 16 16 21 24 24 25 21 14 11 12 15 17 15 13 14 12 10 11 11 11 11 10 10 10 11 11 8 8 9 9 8 8 9 8 8 7 8 8
8 8 8 10 10 14 13 15 10 8 9 10 11 9 4 2 3 5 7 7 10 14 16 18 17 16 17 17 15 12 14 17 18 17 18 18 17 17 17 18 20 19 17 18 18 19 19 19 18 17 17 17 17 17 17 15 13 14 14 14 15 18 21 26 30 27 19 13 11 13 15 13 13 12 10 9 10 9 9 10 9 9 9 10 11 8 8 9 10 9 8 8 8 8 7 7 7
7 8 7 8 8 9 11 11 6 6 9 13 9 5 4 6 5 8 8 8 12 15 15 17 16 15 16 15 14 13 14 15 16 17 18 19 18 18 17 18 20 19 18 18 18 19 18 18 17 16 16 16 16 16 15 14 12 12 13 14 13 15 18 20 24 26 23 16 13 14 14 13 13 12 11 11 11 9 9 9 9 9 8 10 10 9 9 9 10 9 6 6 7 8 7 6 7
7 8 7 7 4 6 10 11 10 8 9 14 8 2 6 8 7 9 8 8 12 15 15 16 16 15 14 14 13 13 14 14 17 19 19 19 19 18 18 19 19 19 19 18 18 18 18 17 17 16 16 15 15 14 13 13 12 12 13 13 13 15 17 16 17 22 23 19 16 15 14 13 13 13 13 12 12 11 9 8 9 9 9 8 7 8 8 7 8 7 7 6 5 6 8 6 6
7 7 6 7 4 5 9 11 13 11 10 13 7 2 6 8 10 10 8 8 8 11 16 15 16 17 15 14 13 13 14 16 18 19 20 19 19 19 19 19 19 19 19 19 19 18 17 17 17 17 17 15 15 14 14 13 12 12 12 12 13 14 15 15 14 16 20 20 17 16 14 15 14 14 14 12 11 11 10 8 8 8 9 7 6 7 7 7 6 5 6 7 5 6 7 6 6
7 7 5 7 6 7 6 3 7 13 12 8 5 3 5 7 11 12 9 6 5 7 14 16 16 17 16 13 13 13 13 14 16 18 20 19 18 19 19 19 18 18 19 20 20 18 18 17 17 18 17 15 15 14 14 13 12 12 12 12 13 14 14 14 13 13 16 18 17 15 14 14 14 12 11 11 10 11 9 8 7 7 8 9 7 5 7 8 6 5 5 6 5 5 5 5 6
7 7 6 7 7 7 7 1 2 9 10 8 8 5 5 7 11 12 9 7 5 6 11 16 15 15 16 13 13 14 13 13 13 17 20 19 19 20 19 19 19 18 19 20 20 19 18 17 17 18 17 16 15 15 14 13 13 12 12 12 12 14 13 14 13 11 13 15 16 16 12 13 14 12 10 10 9 10 9 7 7 7 7 8 6 4 7 7 6 5 6 6 3 2 3 4 5
8 8 5 7 6 4 9 6 5 8 8 8 10 8 7 9 11 11 8 6 5 4 5 10 15 15 15 14 14 14 14 13 13 18 21 19 19 20 20 19 19 18 19 20 19 19 18 17 18 19 18 17 15 15 14 14 13 12 12 11 11 13 13 13 13 11 11 13 15 16 14 13 14 14 12 10 9 8 9 8 7 7 7 6 5 5 6 6 6 6 6 5 3 3 4 5 5
8 9 7 7 5 5 8 10 9 10 9 8 7 6 7 9 11 10 6 4 4 2 5 5 10 15 15 13 14 14 14 13 15 20 21 19 19 20 20 20 19 18 19 21 19 19 19 17 19 19 18 17 16 15 14 13 13 12 12 12 11 12 12 12 12 11 11 12 14 15 15 14 14 15 13 11 10 8 8 8 8 8 7 6 6 6 5 4 6 7 6 4 3 4 3 4 4
9 7 8 7 6 7 10 12 12 11 8 7 8 7 6 4 7 8 7 6 3 2 4 9 8 11 14 15 15 16 14 14 17 21 20 19 20 20 20 19 19 19 20 21 19 19 19 17 19 19 18 18 16 15 14 13 13 12 13 12 12 12 12 12 12 11 11 12 13 14 14 15 15 15 14 12 11 10 9 9 9 8 7 6 6 7 8 6 6 6 7 5 2 2 3 5 5
10 7 6 7 8 6 12 12 13 12 7 8 10 9 7 5 5 6 7 9 7 6 9 9 9 10 13 14 16 16 14 14 17 19 19 20 20 20 20 19 19 21 21 21 19 19 19 17 19 18 17 17 16 15 14 13 12 11 11 12 13 12 11 12 13 13 13 13 13 14 14 14 14 14 13 12 12 11 11 10 9 9 8 7 6 8 9 7 7 6 6 5 3 3 4 6 6
10 7 5 7 6 5 11 12 13 10 5 9 12 10 7 7 5 5 3 5 5 6 7 6 8 10 11 12 15 16 14 14 15 17 18 20 21 21 20 19 19 20 21 20 20 19 19 19 19 18 17 17 15 15 14 13 12 10 10 11 13 12 11 11 11 13 13 12 12 12 13 14 13 13 12 12 12 12 11 11 10 10 10 9 8 8 8 7 8 7 6 4 3 4 5 5 3
9 6 5 6 7 8 7 10 13 10 6 10 13 10 7 7 5 4 1 2 2 2 3 2 5 5 5 8 12 15 15 15 16 16 17 19 21 21 20 19 19 20 21 20 20 20 19 19 20 18 17 17 16 16 14 13 12 10 9 10 11 12 12 11 11 12 12 12 12 11 12 13 12 12 12 11 11 12 11 10 11 10 10 9 9 9 9 8 7 7 6 4 3 4 6 6 3
7 8 7 5 9 9 9 12 12 11 8 10 12 8 6 8 8 4 2 3 5 3 5 4 1 4 8 8 7 13 14 14 16 16 16 18 19 20 20 20 20 20 20 20 20 20 19 20 21 19 18 17 16 16 15 14 13 11 10 9 10 13 14 13 14 14 12 12 12 12 12 13 13 12 11 11 11 12 12 11 11 11 11 10 9 10 10 9 7 6 6 5 4 3 5 7 5
7 9 8 6 9 7 12 19 13 7 7 10 11 5 4 7 10 8 4 5 7 5 6 6 4 3 7 6 5 11 13 13 15 16 15 17 19 20 20 20 21 21 20 21 21 20 19 21 21 19 19 17 17 17 16 16 16 13 12 10 10 12 12 13 14 13 13 13 12 12 12 12 13 12 11 11 11 12 12 11 10 11 11 11 10 10 10 9 8 7 6 6 6 4 4 6 6
6 9 11 9 10 9 8 15 11 6 5 12 15 5 4 4 5 6 5 6 7 4 3 6 7 4 6 3 5 9 13 13 13 15 15 17 19 20 20 21 21 21 21 21 21 20 20 22 22 20 20 18 17 18 17 17 17 15 13 11 10 10 10 10 10 11 12 13 13 13 13 12 12 12 11 12 11 11 12 12 11 11 11 11 9 9 9 8 8 8 7 6 6 6 4 5 6
7 9 13 12 10 10 9 10 9 5 4 10 15 7 5 3 2 3 2 6 9 6 2 2 6 6 6 4 6 11 13 14 13 14 14 16 18 20 20 21 21 21 22 22 21 22 23 24 22 21 21 19 19 20 19 18 18 17 15 13 11 10 10 9 9 11 11 12 14 14 13 13 13 13 12 12 12 11 11 11 12 12 10 9 8 8 8 8 8 8 7 7 7 7 5 4 5
11 6 5 11 12 10 10 9 6 4 3 6 11 9 5 3 1 2 1 4 8 9 7 5 5 5 4 3 6 7 7 9 12 14 14 15 18 21 20 20 21 21 22 22 22 22 24 25 23 22 21 20 20 21 20 18 18 17 16 14 13 11 10 10 9 11 12 13 14 15 15 13 13 14 12 11 12 12 12 11 9 10 10 9 9 8 8 8 8 9 8 7 6 6 5 4 4
11 4 4 7 12 10 9 7 5 4 4 6 9 11 7 3 3 4 3 4 4 6 8 8 7 7 5 4 5 6 6 5 4 9 13 16 19 21 21 20 21 21 22 21 22 22 23 25 24 23 23 21 21 22 21 19 18 18 17 15 14 12 11 12 10 11 12 13 14 14 16 14 12 14 13 12 12 11 12 11 9 9 9 9 10 9 8 8 8 8 7 7 6 6 6 4 4
11 5 3 5 6 8 8 5 5 6 6 9 8 11 9 3 4 4 4 5 2 3 6 7 8 9 8 6 7 7 5 4 2 3 8 16 20 21 21 21 20 21 22 21 21 23 23 24 24 24 24 22 22 23 22 20 18 18 17 16 15 14 13 13 13 11 11 12 13 13 15 14 13 14 13 13 13 12 12 11 10 10 10 10 9 8 8 8 8 8 8 7 6 6 6 4 3
10 8 7 5 4 6 7 6 8 7 5 10 8 11 8 2 4 4 6 8 4 2 3 5 6 6 6 7 7 4 1 1 4 6 5 10 16 19 21 21 21 20 23 22 21 23 23 23 24 24 24 23 23 24 23 21 19 18 18 17 16 16 15 14 14 13 12 12 12 13 14 14 14 14 14 13 13 12 13 12 11 10 10 9 8 8 9 8 8 9 8 8 7 6 6 5 3
8 8 7 7 6 7 6 6 8 7 6 10 8 9 8 4 7 7 8 10 7 4 4 5 5 2 2 4 4 4 3 3 2 3 5 6 8 16 20 20 21 20 23 23 21 23 23 23 25 25 24 24 24 24 24 22 21 20 19 18 17 17 16 15 15 14 14 13 12 13 13 13 13 14 15 14 13 14 13 12 11 11 11 10 9 8 8 8 9 9 9 8 7 7 6 5 5
9 9 7 8 7 7 7 7 7 7 8 9 5 10 8 5 8 8 9 10 9 8 8 9 7 3 3 4 3 4 3 4 3 4 2 6 9 14 19 20 20 20 22 25 22 23 24 23 25 25 24 24 24 24 25 24 23 21 21 20 18 18 17 16 16 15 14 13 13 13 13 13 13 13 14 14 14 14 13 12 12 11 11 11 10 9 8 8 8 8 8 8 7 8 7 6 6
10 9 7 9 8 7 7 7 7 7 7 8 9 9 6 6 7 9 10 10 10 11 11 11 8 5 6 5 4 5 3 3 2 1 1 8 13 11 15 18 20 20 21 24 23 24 26 25 26 26 24 24 25 24 25 25 24 23 22 21 20 19 18 17 16 15 15 15 13 13 13 13 13 13 13 14 14 14 13 12 12 11 11 10 10 9 9 9 9 8 7 8 7 8 8 7 7
9 7 7 7 8 8 6 6 8 9 6 6 7 6 6 7 8 10 12 12 12 14 13 12 10 7 6 5 4 5 4 3 2 1 2 10 12 7 10 13 19 22 22 22 23 24 25 26 26 26 25 25 25 24 24 24 24 23 23 23 21 21 19 18 17 17 16 16 15 14 13 13 13 13 13 13 14 15 14 14 13 11 11 10 10 10 9 9 9 8 8 8 7 7 8 8 7
5 9 10 8 9 10 7 5 8 10 7 5 6 9 9 8 8 9 11 14 14 15 14 12 10 8 7 6 5 4 3 3 2 4 6 8 8 7 9 12 15 19 20 21 23 24 25 27 27 26 25 25 25 25 24 24 24 23 24 24 22 22 21 19 18 18 17 17 16 16 15 13 12 13 14 13 14 15 14 14 13 12 12 11 10 10 10 9 9 9 8 8 8 7 8 8 8
5 5 5 7 11 10 5 3 5 8 6 5 9 14 12 8 7 8 10 14 15 14 14 12 10 10 10 9 7 5 4 6 5 5 5 5 5 5 7 8 9 12 14 15 18 23 25 25 26 26 25 25 25 24 24 24 24 24 24 24 23 22 22 20 19 20 19 18 18 17 16 15 14 13 14 14 15 15 14 14 13 13 12 12 11 11 11 10 9 9 8 8 8 8 8 8 8
9 5 5 6 8 7 4 3 4 7 6 7 11 14 11 6 6 8 9 12 14 14 14 13 11 10 10 9 9 8 5 7 6 4 1 1 2 2 4 3 2 6 12 11 11 17 23 25 24 24 25 25 24 23 23 23 24 22 22 24 24 23 22 21 20 21 21 19 19 18 17 17 16 15 14 15 16 16 15 15 14 13 13 13 12 12 11 11 10 9 9 9 9 9 9 8 9
10 8 8 8 5 4 6 6 5 7 5 8 10 9 5 3 3 7 9 9 12 15 14 12 11 10 10 10 9 9 7 7 6 4 5 5 1 2 4 1 9 5 5 6 7 14 15 17 21 24 24 23 24 24 22 23 23 22 21 23 24 24 23 22 21 22 22 21 20 20 19 18 18 17 16 15 16 16 16 15 15 14 13 13 13 12 12 12 11 10 10 10 10 11 10 9 9
8 7 8 7 4 4 5 7 6 7 4 6 10 7 3 1 1 5 10 11 13 15 13 11 10 9 10 10 10 9 8 8 9 9 8 9 7 2 3 3 8 8 7 11 10 10 9 9 13 21 22 21 22 23 22 22 22 21 22 23 24 24 23 22 21 22 22 22 22 21 20 20 20 19 19 17 17 17 17 16 15 15 14 14 14 13 13 13 12 12 11 10 11 12 12 11 10
3 6 7 6 6 5 5 7 9 8 3 5 9 7 6 4 2 3 8 11 14 15 14 11 10 11 10 10 11 11 10 9 10 10 10 11 11 9 8 6 3 4 7 8 8 8 11 14 18 17 18 18 20 21 21 22 22 22 22 22 22 23 23 22 21 22 22 22 23 23 22 21 21 21 21 20 19 18 17 17 16 16 15 15 15 15 14 13 13 13 12 11 12 13 13 12 11
Wind_Direction
145 154 171 188 199 217 231 236 260 252 229 292 324 65 286 277 194 141 135 156 105 119 110 105 114 100 86 81 85 63 39 53 70 99 107 134 146 150 147 139 140 138 135 135 133 132 131 131 130 132 131 129 124 117 115 115 116 114 112 105 95 93 92 90 91 92 91 90 88 85 85 84 86 88 90 91 88 88 88 88 87 86 86 85 91 93 92 94 96 97 96 95 96 95 96 97 98
157 168 186 206 208 216 243 300 259 250 201 249 324 89 196 236 182 144 138 154 130 121 113 103 101 90 85 82 83 70 54 60 80 88 106 134 139 142 142 139 140 137 135 134 133 131 131 133 133 133 129 125 121 116 115 114 114 113 108 100 96 97 95 94 93 93 93 92 89 86 84 83 87 89 88 88 88 88 88 89 88 88 86 86 90 96 97 96 99 105 103 100 99 98 98 100 100
187 194 196 204 213 220 177 59 252 308 274 153 144 187 175 170 130 146 166 161 126 114 110 101 93 90 90 80 76 81 81 78 92 99 118 135 136 140 141 140 139 135 134 133 133 132 134 137 137 133 127 122 118 115 114 113 112 109 106 103 105 105 101 98 96 95 92 90 88 87 85 82 85 91 93 91 89 90 92 90 88 89 88 88 91 97 102 99 100 101 101 104 102 100 102 102 101
204 231 223 188 208 239 195 180 235 317 318 177 164 192 176 143 160 212 189 150 119 109 102 97 87 82 89 90 89 92 99 92 102 110 124 136 137 139 140 138 136 133 133 133 133 135 138 140 137 130 124 119 117 115 113 112 111 111 113 118 119 111 108 104 101 99 95 93 91 92 89 87 90 92 95 94 91 91 92 90 88 91 90 90 91 94 101 104 104 101 104 107 103 103 104 104 105
215 251 241 194 216 260 232 234 207 222 207 198 155 192 204 164 174 191 162 134 114 108 106 102 94 90 90 91 99 100 109 109 111 117 122 131 134 137 139 137 134 133 133 132 134 139 139 136 131 125 122 119 117 116 113 114 117 124 130 130 122 113 112 109 104 100 99 98 95 95 93 93 97 96 95 93 91 91 91 91 91 92 92 92 95 96 99 106 104 103 108 108 103 104 104 105 108
228 253 235 215 202 118 271 262 187 223 245 237 146 173 215 176 166 164 143 126 112 111 108 99 95 98 92 87 96 106 118 119 116 120 123 130 135 138 140 137 132 132 132 131 134 139 136 131 127 123 120 119 118 117 119 124 130 136 138 130 120 114 110 108 107 103 99 97 96 94 91 92 92 92 93 93 92 91 91 93 93 91 93 96 98 98 97 102 101 104 111 109 104 104 105 107 108
227 243 220 223 192 139 262 268 226 202 293 295 135 164 193 168 169 157 136 125 116 110 108 106 104 98 95 98 98 103 114 118 119 123 126 131 135 138 139 133 129 130 130 128 132 136 134 129 126 121 119 119 120 122 128 132 135 141 139 127 117 113 108 106 108 108 105 100 98 97 96 96 92 92 92 95 96 94 93 94 94 92 93 95 95 96 96 100 104 109 112 111 107 107 108 109 109
231 242 174 246 233 207 251 270 273 163 285 294 142 166 172 172 189 151 131 130 120 113 111 111 109 100 97 100 97 105 113 115 118 123 128 131 133 135 133 128 127 126 125 126 132 134 132 129 124 120 121 123 126 130 134 134 135 142 134 118 111 107 101 98 97 102 111 108 102 101 101 102 99 97 95 96 96 93 92 92 93 92 92 92 91 92 96 101 106 106 110 113 110 109 110 113 112
232 244 80 263 257 253 251 293 313 106 163 194 167 164 167 196 172 121 131 131 120 113 110 111 107 104 102 100 101 108 112 115 120 125 129 130 131 132 130 128 126 125 123 125 130 132 130 127 124 123 126 129 133 135 135 133 135 135 120 111 109 105 99 95 97 102 110 112 108 105 103 105 103 100 99 97 94 93 92 90 89 91 93 94 96 95 94 100 105 106 110 113 109 109 111 114 112
228 247 347 267 259 265 261 166 176 165 164 162 158 160 195 190 95 76 164 128 122 116 108 110 106 105 106 105 107 113 118 123 123 124 128 129 130 130 130 129 126 125 124 124 128 130 130 127 125 126 130 132 135 137 133 131 135 127 115 114 110 103 100 99 104 107 110 113 115 111 107 106 104 102 101 97 95 95 93 91 90 90 92 96 101 100 95 93 98 109 114 112 108 108 109 110 107
230 351 24 279 272 287 303 121 175 174 151 141 147 166 186 137 102 145 186 124 118 119 118 119 112 110 109 105 106 119 126 129 127 125 127 128 131 131 129 128 127 127 125 126 128 130 130 129 128 126 129 132 133 133 130 131 131 122 117 115 107 101 99 101 104 107 109 112 115 115 112 108 105 105 101 98 96 94 91 90 90 90 91 95 99 102 103 99 100 111 113 111 110 109 108 106 103
248 69 64 286 300 298 308 86 175 159 129 136 155 199 159 111 108 151 152 126 120 120 125 123 115 114 111 111 114 126 132 133 130 129 128 129 130 129 129 128 128 128 128 129 129 132 132 130 128 127 130 130 131 130 132 135 127 123 122 114 105 105 104 104 106 110 114 116 118 117 117 112 107 108 105 102 97 90 89 88 88 89 93 96 98 102 107 108 108 110 108 108 109 109 110 106 102
267 59 303 290 347 304 298 113 166 141 117 168 185 238 150 102 84 113 133 121 114 115 121 122 121 118 114 116 125 134 135 133 132 131 130 129 128 128 129 130 130 129 130 130 131 134 134 133 131 131 132 130 129 130 140 139 128 124 120 115 106 108 111 108 110 115 116 119 121 118 116 112 108 106 105 106 100 93 92 89 89 89 93 96 97 102 108 112 112 105 103 106 109 111 111 107 105
203 152 226 294 340 294 300 116 162 143 146 238 238 221 104 99 132 190 155 116 105 138 131 132 126 116 119 126 132 140 135 135 135 133 131 129 128 129 130 131 131 131 130 132 133 135 136 135 134 135 134 131 128 128 134 131 126 123 120 123 114 113 114 110 113 114 115 118 116 114 113 111 107 103 101 104 102 102 101 95 92 90 91 94 95 100 107 112 114 109 105 105 108 110 109 108 109
221 203 173 307 316 297 3 98 163 145 168 198 207 165 112 101 162 173 149 123 181 218 140 132 130 120 136 140 139 142 137 138 137 134 132 130 130 129 131 132 132 132 131 133 134 136 136 134 135 137 135 132 129 127 127 126 125 122 125 128 121 117 114 114 116 114 117 119 116 115 113 112 110 107 103 102 103 105 105 98 95 93 93 94 97 101 105 110 114 115 114 109 107 106 107 109 111
255 260 152 327 328 331 16 77 157 139 160 173 161 147 128 111 161 154 141 143 181 180 142 138 141 134 142 142 139 140 140 140 137 135 133 132 132 132 136 136 133 131 131 133 135 136 135 133 135 135 134 134 132 130 129 131 128 127 133 133 126 117 114 120 116 115 118 120 124 121 116 115 113 110 107 106 105 104 103 99 97 99 99 98 101 103 105 109 113 117 119 120 119 118 118 116 116
256 254 293 315 335 339 349 12 145 144 143 144 142 157 137 119 196 187 157 222 176 146 140 146 142 134 138 139 138 139 141 140 138 136 134 135 137 137 141 138 131 129 130 133 135 135 135 134 135 136 136 135 134 134 133 134 134 141 145 139 136 125 123 127 118 117 118 118 122 119 119 121 118 114 112 112 109 105 102 100 101 104 102 102 105 105 104 107 110 115 119 123 127 127 123 120 119
252 276 339 308 316 347 331 41 114 143 134 141 169 170 136 131 182 186 171 212 173 138 129 137 136 129 129 134 137 139 142 140 140 140 137 140 141 139 139 136 129 128 133 135 136 136 135 135 137 143 143 137 136 137 135 138 139 144 149 143 138 129 130 134 126 123 124 124 122 121 128 131 128 121 118 119 114 110 107 106 108 108 105 106 111 108 105 107 109 111 112 117 121 121 119 119 117
231 298 272 259 68 65 29 114 124 138 144 149 154 151 136 143 171 180 168 168 155 137 131 134 128 123 127 136 140 141 144 143 142 143 142 143 144 140 139 139 134 133 137 139 139 139 137 138 140 147 147 140 138 138 138 142 141 142 151 153 143 134 132 134 129 122 125 130 131 135 136 133 130 124 121 121 118 116 114 113 112 112 109 107 109 106 103 105 107 106 106 110 112 114 114 115 114
184 143 262 118 106 87 97 122 121 135 145 139 133 139 141 143 163 201 169 158 147 139 141 137 129 130 136 140 142 144 146 145 145 146 144 145 145 141 141 144 139 137 141 141 140 141 140 141 145 149 147 142 142 144 144 144 143 145 151 157 151 140 134 132 127 124 133 137 136 137 129 123 123 121 122 118 116 117 117 118 117 118 115 109 108 104 104 104 104 106 109 112 113 119 117 111 116
158 179 260 119 131 121 118 121 116 130 136 126 122 127 135 137 41 27 10 165 146 145 147 140 136 138 141 143 145 147 147 145 148 149 146 146 145 142 142 143 139 138 141 140 140 143 145 147 149 150 147 147 148 147 148 146 145 148 152 155 151 142 138 137 133 137 147 144 137 132 124 119 119 124 126 121 120 119 118 121 121 119 116 114 111 107 105 101 101 109 117 121 123 138 136 120 129
210 216 251 152 150 144 126 125 118 121 121 113 109 121 152 190 44 38 21 222 145 144 144 140 141 142 143 146 147 148 148 149 152 151 149 149 146 144 143 142 140 139 139 139 143 150 153 152 152 151 149 151 151 147 150 150 151 152 153 152 146 140 140 139 141 147 151 148 141 130 126 125 127 133 129 122 125 127 127 131 130 121 114 115 113 114 113 107 111 111 117 126 130 141 136 130 138
224 210 236 225 151 142 133 126 122 122 120 112 113 145 161 119 76 34 74 229 211 147 140 140 141 143 144 145 148 150 151 153 155 153 152 150 149 147 144 145 143 141 140 139 143 152 155 151 152 153 149 152 154 151 150 152 156 154 153 151 145 143 143 134 132 141 151 154 146 136 134 133 135 134 125 124 128 128 130 137 137 129 121 114 111 121 127 125 124 110 118 128 125 125 119 118 123
243 259 274 251 137 130 132 129 130 127 118 109 122 148 125 106 103 334 215 231 212 154 142 143 142 147 146 148 152 153 153 155 155 154 153 150 151 147 144 147 143 140 143 141 141 146 151 148 150 150 147 152 155 152 148 149 152 150 153 154 148 147 146 141 142 147 154 154 149 145 140 138 142 134 123 131 134 128 129 136 135 131 129 118 113 123 130 130 127 115 119 123 121 120 118 114 112
216 232 293 274 124 127 131 127 129 121 112 114 126 120 114 117 101 259 281 277 190 151 146 145 145 150 149 153 153 153 157 155 154 155 153 152 150 146 146 146 141 141 145 144 141 143 148 150 148 146 150 154 151 151 151 148 147 149 155 155 148 145 145 152 162 161 155 156 156 152 138 132 140 136 130 135 136 137 141 138 133 133 135 125 122 132 135 135 132 125 118 119 123 121 121 121 119
215 192 278 278 127 131 132 124 128 121 120 137 126 109 124 132 76 310 293 298 200 145 145 148 149 153 152 155 153 156 159 153 157 157 153 154 151 149 149 145 141 143 146 145 143 142 147 150 148 148 154 151 146 153 154 150 149 149 153 154 146 138 141 150 156 149 141 143 144 142 132 124 131 133 130 129 130 140 143 136 134 139 138 132 129 127 126 127 124 123 118 118 124 121 123 127 125
233 212 247 262 123 123 131 124 128 123 127 145 130 122 129 113 84 138 274 279 215 143 147 152 151 154 155 154 153 159 158 156 160 155 155 157 152 152 151 147 144 144 147 145 143 143 145 147 148 150 154 149 144 148 143 141 145 145 151 157 147 138 138 135 130 129 126 127 131 134 134 134 136 132 127 129 136 138 136 134 137 140 137 132 129 120 117 122 118 113 111 113 119 123 126 125 123
216 213 228 244 125 123 138 123 126 128 132 149 131 116 102 88 93 209 241 253 189 150 154 154 154 156 155 151 153 162 159 158 158 155 159 155 151 155 151 149 145 145 150 146 145 148 147 148 148 147 149 147 145 147 143 142 149 152 152 149 139 138 139 134 131 129 128 129 131 135 136 135 139 134 128 136 142 139 138 138 135 135 134 129 128 128 125 127 116 102 105 113 117 118 119 123 123
219 220 226 225 144 126 124 108 119 131 136 155 131 103 99 164 186 194 224 225 174 164 160 156 157 157 154 150 155 163 157 157 159 158 157 150 154 157 152 151 147 146 149 145 147 151 147 146 146 144 146 145 144 148 148 147 151 150 141 133 128 129 131 132 133 132 133 136 131 132 132 128 133 135 135 141 144 143 140 138 131 128 126 123 130 133 130 130 120 111 112 113 117 121 120 127 124
226 232 239 221 160 123 108 103 138 143 140 162 147 107 175 205 199 188 210 210 181 172 164 161 159 158 154 151 159 160 155 161 162 158 154 152 159 158 155 154 148 147 147 145 150 150 146 144 144 145 145 143 140 141 142 141 142 136 128 128 127 122 119 122 127 129 134 138 132 132 135 134 136 140 146 146 141 139 136 135 131 127 121 123 134 128 119 121 118 120 120 117 123 123 120 120 117
225 234 235 227 183 142 142 144 163 155 152 170 163 127 183 191 202 203 207 205 192 176 167 165 160 160 155 153 162 156 156 168 163 156 154 157 162 158 157 154 147 146 145 147 152 149 146 146 146 145 145 142 138 137 138 138 137 134 130 132 129 124 121 119 124 127 129 135 137 139 143 144 141 141 146 144 140 138 138 138 133 133 129 127 130 116 112 115 110 110 109 115 121 109 112 114 107
222 233 222 221 201 147 155 159 161 152 156 179 177 145 178 184 189 195 200 209 211 183 172 169 163 161 155 157 164 156 160 168 162 157 156 162 164 158 155 152 148 147 147 149 151 150 147 146 145 144 145 143 137 137 138 137 136 134 131 133 132 128 128 127 128 128 126 132 140 145 150 153 146 141 143 145 148 147 141 138 137 136 131 132 134 119 131 143 121 105 99 101 102 103 109 106 101
206 222 226 222 198 154 149 157 157 147 145 175 192 159 170 179 181 181 186 210 232 200 179 170 167 162 154 161 165 157 162 166 162 159 160 166 165 158 154 152 150 149 148 149 150 152 148 146 145 144 146 142 138 138 137 136 135 133 131 133 133 128 130 133 130 126 125 129 136 141 148 152 150 147 142 138 144 146 140 138 141 136 128 135 142 130 140 140 119 106 99 90 90 108 110 103 109
194 210 222 233 220 165 143 105 194 161 149 164 181 185 176 167 175 175 177 197 222 222 189 171 171 164 155 166 167 158 165 167 163 159 163 169 163 156 155 152 151 148 147 149 151 151 147 147 147 145 145 142 140 141 140 138 137 136 136 138 137 131 133 136 131 125 126 128 132 137 142 147 152 156 144 133 137 141 139 141 142 136 131 136 141 134 128 121 114 116 110 101 91 101 104 95 104
195 199 210 231 227 125 130 151 202 184 155 160 176 182 174 159 166 173 174 189 209 241 223 181 176 167 160 170 167 160 167 168 164 161 164 169 161 155 156 153 150 150 149 149 150 149 147 149 146 144 146 144 142 143 142 141 142 142 141 141 139 135 135 137 135 132 129 129 134 138 141 148 156 158 145 132 133 134 133 140 142 135 130 135 135 130 120 111 125 130 119 122 117 99 103 99 92
218 190 199 228 200 113 137 157 166 171 154 155 171 162 154 155 163 166 162 191 201 241 298 256 192 168 165 175 168 161 168 168 164 163 165 166 161 157 156 154 151 152 150 147 148 148 149 150 145 147 150 146 145 147 146 145 148 150 146 144 141 137 136 135 135 137 136 134 137 139 140 147 154 155 148 136 134 138 140 143 142 135 133 142 137 135 144 132 127 132 135 139 113 89 104 119 108
271 208 189 221 213 149 154 155 150 164 163 155 158 135 126 164 174 149 141 182 188 150 260 269 237 178 171 177 166 162 168 167 165 163 165 165 161 158 156 155 153 152 148 147 151 150 152 152 147 150 153 150 150 153 154 154 155 156 154 150 146 144 144 144 144 143 141 140 142 142 142 146 151 155 154 146 145 147 147 147 143 140 141 148 142 143 159 152 124 127 144 153 135 141 161 140 124
275 254 187 202 233 160 142 149 154 171 173 154 148 125 129 194 195 141 145 178 175 184 212 235 238 196 179 180 165 162 168 165 165 163 164 166 162 159 157 158 156 150 147 150 154 153 154 154 150 154 155 154 158 159 159 158 156 159 159 154 149 151 154 155 155 151 146 144 145 144 142 146 152 156 155 151 151 148 148 151 147 146 149 153 145 137 144 143 135 140 154 154 131 132 141 129 130
248 252 205 202 216 134 135 149 156 175 178 150 144 123 140 188 179 134 154 195 163 187 220 244 243 207 186 184 164 162 170 163 164 164 166 167 164 160 159 163 160 152 151 155 157 155 155 155 154 158 157 158 162 160 161 160 158 161 158 149 149 156 159 156 153 149 146 142 144 145 144 149 154 155 153 151 152 150 149 151 148 149 153 152 140 133 141 147 148 150 149 148 140 129 122 127 132
240 232 214 209 174 143 149 159 160 178 182 147 140 125 142 171 152 114 320 267 121 196 233 352 314 272 231 208 171 165 170 163 164 167 169 169 164 161 162 166 162 155 156 159 159 158 157 157 157 160 161 161 163 161 162 160 158 160 154 148 152 156 157 155 150 145 146 150 154 155 149 150 151 149 152 152 152 149 146 149 150 149 151 150 146 149 156 157 156 151 142 150 177 166 136 136 128
239 233 222 204 190 177 143 150 169 181 169 142 139 129 136 157 144 133 256 201 153 195 190 130 48 277 274 262 192 171 168 164 167 170 172 169 166 163 163 168 164 159 161 161 162 164 160 159 161 164 163 163 164 161 161 160 158 158 155 151 149 150 152 155 156 151 152 158 158 158 158 156 150 150 155 153 150 148 146 151 153 150 151 152 154 159 157 157 165 157 143 138 132 133 135 135 125
220 227 227 200 213 220 133 145 173 185 159 154 162 148 131 158 138 138 195 173 162 190 177 153 143 220 266 275 220 187 170 166 170 172 174 169 166 164 164 171 169 164 166 165 165 166 162 161 164 166 165 165 166 164 162 162 161 162 164 158 149 150 154 159 160 157 158 160 159 160 163 160 152 155 159 151 152 153 148 149 151 151 154 155 159 159 154 161 173 163 148 134 117 112 134 133 123
221 204 210 205 215 233 162 157 182 200 169 171 190 197 112 149 110 122 164 142 152 188 149 137 135 194 248 240 238 212 175 168 173 175 177 170 167 166 167 175 173 167 169 168 167 167 162 161 164 167 168 167 167 166 165 166 164 163 166 164 160 160 160 165 163 157 160 161 160 159 159 158 155 159 157 148 155 157 151 152 154 155 157 156 158 154 153 165 167 157 150 140 128 122 122 119 117
244 201 195 203 211 227 216 203 205 199 160 168 199 213 113 126 27 72 163 142 144 150 127 129 141 186 229 209 231 220 180 172 177 179 179 171 169 168 169 176 176 171 170 170 169 166 161 162 166 167 169 170 169 170 169 168 167 167 170 168 169 171 164 168 163 151 154 156 156 156 155 161 161 157 153 153 159 157 154 160 156 155 160 159 157 153 160 170 157 146 144 140 130 122 119 104 98
239 235 197 202 206 227 235 230 225 205 185 183 208 207 129 118 168 108 142 164 148 141 156 190 173 185 222 231 246 240 203 186 180 183 183 173 171 170 172 178 178 173 171 172 170 165 161 164 168 168 170 172 172 173 171 172 172 171 175 174 173 177 166 165 165 152 151 150 153 156 154 159 161 154 154 160 163 157 157 162 155 153 160 163 165 163 165 166 155 147 144 142 134 126 130 119 100
232 283 335 218 194 213 236 237 249 239 229 231 212 184 142 104 136 136 130 138 132 129 147 167 177 190 194 210 246 243 243 248 204 192 188 177 173 173 174 180 181 173 170 173 170 165 162 164 169 170 171 174 174 175 174 174 177 175 179 179 176 178 167 165 169 158 154 151 153 157 153 155 159 156 158 163 163 161 160 164 164 160 162 166 169 168 167 164 159 158 154 153 150 144 144 133 121
226 220 251 235 191 211 229 223 250 244 231 250 221 156 142 140 131 136 130 119 113 116 123 137 165 187 177 182 219 214 221 257 314 275 210 185 177 176 178 181 183 174 168 174 171 167 166 167 171 173 172 175 176 178 178 176 178 179 183 182 178 178 169 168 171 163 161 159 156 158 156 158 161 160 163 165 166 166 164 165 168 169 168 170 166 161 166 165 162 166 165 164 164 158 157 152 149
232 215 193 209 198 219 226 207 232 239 225 246 218 136 124 155 137 134 134 131 135 117 109 118 140 172 168 173 193 179 124 15 9 341 284 206 180 177 182 182 183 175 167 174 175 169 169 169 172 175 174 177 177 177 180 180 179 181 185 184 180 179 174 172 174 170 171 171 167 164 163 166 167 167 168 168 170 171 170 169 170 173 168 165 165 166 174 175 169 171 174 173 172 172 172 170 177
243 236 192 200 201 203 224 215 219 226 226 239 212 123 93 86 116 130 131 131 137 127 126 125 120 136 130 132 140 122 112 104 78 331 307 273 206 182 183 181 182 178 168 173 179 172 171 172 174 177 177 178 178 178 180 183 182 182 185 185 183 181 179 177 177 176 177 179 177 172 171 173 171 170 171 173 176 172 173 172 169 172 167 163 172 173 173 173 166 168 175 176 178 183 185 183 192
231 246 197 197 210 193 210 225 219 220 224 219 158 97 97 118 118 124 120 118 124 112 108 117 121 121 82 62 78 106 110 106 158 213 238 285 248 197 187 180 178 183 174 175 182 174 171 174 175 179 181 180 179 180 182 184 185 185 185 185 185 183 182 181 180 180 180 182 184 180 178 179 176 175 173 176 178 173 174 176 170 172 171 168 173 167 159 163 162 162 171 178 184 190 190 193 206
216 247 210 199 219 208 204 214 214 218 215 185 137 103 124 144 123 126 122 116 117 105 99 104 101 90 78 57 65 103 106 103 154 226 342 274 259 213 190 184 179 186 184 180 182 175 170 174 178 180 181 182 183 183 183 185 186 187 186 186 186 186 186 185 184 185 183 183 187 187 185 183 181 183 179 177 177 173 175 178 173 174 175 173 175 168 164 173 173 166 169 181 191 193 193 199 208
197 224 230 215 232 242 234 225 224 221 204 168 139 108 112 130 130 134 125 115 109 97 93 93 87 85 84 63 63 97 113 119 135 151 235 253 254 214 193 197 188 189 191 188 183 175 171 173 178 183 183 183 185 186 186 187 187 187 188 187 187 187 188 188 188 189 188 186 187 190 192 190 185 184 182 179 176 174 177 177 175 179 178 176 180 174 171 184 186 180 181 189 195 193 195 202 208
185 197 223 233 245 259 262 248 246 233 202 141 117 114 121 135 135 131 122 111 101 91 86 84 84 87 80 68 68 87 121 139 173 208 220 231 228 200 200 209 200 193 196 196 186 179 176 174 176 182 185 185 186 187 188 189 188 189 190 189 189 189 189 191 191 191 191 190 190 191 192 194 191 184 182 181 177 177 180 176 177 184 181 178 182 179 178 190 191 188 191 194 198 198 193 200 210
224 193 231 246 243 255 277 293 272 241 203 134 130 133 137 146 136 135 130 113 101 94 87 78 73 72 64 59 54 62 134 161 182 210 233 233 208 197 203 206 206 205 208 209 196 184 177 175 178 182 186 188 188 189 189 189 190 190 192 192 191 191 191 192 193 192 192 192 191 191 190 193 193 189 187 183 179 180 180 179 181 184 183 183 188 185 185 196 194 189 197 199 201 203 194 198 212
263 297 306 268 242 236 224 251 279 238 194 130 138 143 137 140 140 138 128 113 105 95 83 72 61 56 57 56 42 37 87 136 158 175 202 252 197 208 236 204 149 219 233 234 229 212 193 182 182 185 188 190 190 191 190 190 192 192 193 195 194 194 194 195 195 192 193 194 193 191 191 192 192 194 195 186 180 183 184 184 184 185 186 186 191 191 190 199 198 191 202 205 203 209 205 204 214
251 269 260 239 250 263 213 215 261 251 197 134 144 151 122 80 109 124 114 108 105 94 81 72 59 49 48 51 42 30 43 81 93 74 37 13 8 210 242 39 74 89 236 239 266 263 232 195 185 186 191 193 192 194 193 191 194 195 195 196 197 198 198 198 199 195 194 196 196 194 192 191 190 193 197 189 183 186 187 187 187 188 191 188 191 195 194 198 200 198 209 211 203 208 211 211 217
216 232 237 220 230 287 246 214 229 258 250 148 141 136 113 33 319 127 117 109 105 96 89 82 69 59 50 43 42 36 31 47 55 46 30 15 9 62 147 87 84 107 165 195 216 252 247 223 208 193 189 195 197 197 196 195 195 198 198 197 198 201 201 201 202 199 198 197 197 197 194 192 192 192 194 192 191 192 190 191 191 191 194 193 192 195 197 200 201 202 210 215 211 210 209 213 222
255 228 221 214 211 234 239 215 217 242 266 126 129 119 119 149 198 139 107 101 105 101 97 94 84 76 66 49 41 37 31 35 43 43 36 29 27 44 79 90 99 129 155 184 200 193 189 219 233 209 187 195 204 204 202 199 198 200 201 200 200 202 202 203 205 203 202 201 199 199 197 195 194 194 194 193 194 195 194 193 195 195 196 197 198 197 198 202 204 205 208 212 217 215 208 212 222